Theta_e
317 317 317 317 317 317 318 318 318 319 319 319 319 320 321 322 321 319 311 318 324 344 344 331 325 334 343 341 340 338 324 317 319 319 321 329 328 334 338 336 339 342 339 342 345
317 317 317 317 317 317 317 317 318 318 318 318 319 319 320 321 317 314 325 340 346 345 318 323 320 328 333 334 333 330 321 319 325 325 324 327 326 330 330 331 335 339 343 343 344
316 316 316 316 316 317 317 317 317 317 317 317 318 319 319 320 314 314 350 337 343 342 319 325 325 327 329 331 330 328 322 323 327 327 330 327 326 332 329 326 337 336 339 341 342
315 315 316 316 316 316 316 317 317 316 317 317 317 318 319 318 305 321 350 351 344 323 318 320 323 323 325 324 329 323 328 328 326 330 329 328 331 326 329 329 339 341 342 342 341
315 316 316 316 315 316 317 317 317 316 316 317 318 319 317 312 312 324 350 347 328 318 315 317 319 321 320 324 326 324 327 329 330 330 331 330 326 327 327 334 340 342 342 341 341
316 316 316 316 316 317 317 316 316 316 318 321 320 319 313 308 326 327 325 330 321 316 315 318 317 324 323 323 322 326 327 327 330 328 329 328 329 328 328 334 337 339 339 341 341
316 316 316 316 316 316 316 316 315 315 320 324 323 319 312 312 327 322 324 325 326 320 314 319 319 321 323 321 326 325 320 324 326 327 326 327 324 326 331 333 333 336 338 339 342
316 316 315 315 315 315 314 314 314 316 324 322 324 318 309 327 326 325 318 320 324 323 319 322 322 321 320 325 324 320 320 315 324 326 327 325 316 328 331 330 332 334 336 338 339
315 315 315 314 314 313 313 313 315 318 323 320 319 315 312 328 321 325 322 318 322 324 324 325 323 318 320 316 315 317 311 314 317 326 324 323 317 327 332 328 333 333 334 337 339
315 314 314 314 313 312 311 313 320 320 321 323 323 314 317 316 322 323 325 318 320 323 322 321 318 313 315 313 306 310 311 314 314 321 321 319 318 326 327 328 332 334 335 336 337
315 314 313 313 312 311 311 313 306 313 308 308 314 312 315 323 323 319 322 317 318 322 314 318 311 308 311 314 315 315 314 311 315 321 318 317 320 323 326 327 328 332 336 334 336
314 313 312 312 311 311 310 306 304 306 299 306 306 307 312 318 312 316 320 312 311 311 317 314 309 314 315 315 314 314 312 311 314 319 319 318 318 325 325 324 328 333 332 337 336
313 313 311 311 310 311 310 307 311 310 299 300 305 305 306 310 309 315 315 314 310 309 313 311 313 317 314 313 310 312 311 311 311 315 320 318 314 320 327 330 326 327 337 338 338
313 312 311 309 308 311 307 310 311 310 293 298 303 307 307 308 306 319 317 316 313 309 312 313 316 313 312 310 311 306 315 314 313 311 306 318 306 318 321 323 327 331 335 335 338
312 311 310 308 308 308 307 310 310 308 285 306 307 315 311 305 309 310 321 314 310 311 313 312 313 311 310 310 312 308 314 313 313 310 310 310 310 314 322 319 322 328 330 336 337
311 310 309 311 311 311 310 310 307 293 285 301 308 306 306 306 306 311 313 316 316 313 314 313 318 313 311 313 312 313 310 310 311 309 303 308 310 310 315 320 321 326 328 335 337
310 308 307 312 306 311 310 305 291 286 298 296 297 301 301 303 305 306 308 307 305 303 306 311 313 313 313 309 311 310 306 299 298 299 300 309 308 313 319 323 323 325 327 331 338
308 306 313 313 312 310 307 297 286 292 293 298 297 297 297 302 304 306 304 306 307 308 305 302 302 311 312 310 308 307 306 300 294 296 299 308 304 310 321 324 326 327 328 331 334
306 312 312 312 311 309 301 290 290 292 295 293 294 293 295 299 300 303 304 305 308 308 304 304 304 313 314 313 312 307 303 309 303 304 300 304 308 314 319 320 323 323 328 330 331
307 309 310 313 311 307 298 291 293 297 296 294 288 292 288 292 293 296 300 308 308 309 311 308 303 310 312 314 312 310 311 302 304 297 297 302 306 307 313 317 320 321 323 328 333
308 304 309 312 310 302 293 293 294 297 297 293 291 290 290 290 292 293 299 304 307 310 312 308 306 307 311 308 306 307 307 306 306 304 299 299 303 316 317 318 320 322 324 326 331
305 299 312 310 297 298 294 295 295 295 298 296 296 292 291 293 292 293 295 301 308 306 305 311 306 302 306 313 313 310 308 309 303 302 305 305 305 317 319 321 321 322 325 326 330
300 303 310 308 292 293 296 295 296 294 294 293 292 293 294 291 289 294 295 303 304 304 303 306 305 300 303 310 311 308 309 309 310 307 305 301 304 319 318 320 322 322 324 328 333
302 295 302 302 301 296 294 293 291 297 294 294 294 295 292 290 293 291 293 299 303 304 313 308 305 304 301 306 311 307 308 309 308 305 305 306 308 313 315 316 321 324 325 328 332
301 296 298 292 295 295 295 293 291 290 296 295 293 293 291 287 289 290 293 295 298 306 306 307 302 306 308 310 311 308 307 308 307 309 305 309 310 314 316 318 322 326 328 328 331
297 294 297 295 296 294 294 292 291 292 292 291 291 293 293 289 291 289 292 292 293 299 300 305 302 306 305 308 309 308 308 308 309 309 310 310 311 319 320 323 324 326 325 328 330
305 302 295 292 293 291 292 293 293 295 295 295 294 292 291 292 296 297 297 297 297 296 297 300 301 301 299 307 307 304 308 309 310 311 311 308 315 320 319 320 323 326 325 326 325
Wind_Speed
20 21 21 21 21 21 21 20 21 20 20 20 18 16 16 16 19 14 18 16 16 13 7 12 18 21 20 22 19 14 6 7 12 15 6 13 16 18 18 18 15 12 25 29 24
21 22 22 22 22 22 22 22 21 21 21 20 18 17 16 14 18 25 21 20 10 19 19 19 21 22 19 22 16 17 4 6 9 13 5 12 15 14 14 14 19 27 28 26 25
22 23 23 24 24 24 24 23 23 22 20 20 18 16 14 13 13 9 2 33 22 17 20 20 19 23 24 17 18 20 9 14 12 16 13 9 23 16 17 15 27 29 30 28 25
23 24 24 25 25 26 26 25 24 23 21 19 17 15 12 11 8 7 5 12 25 21 20 22 22 25 23 21 21 20 18 14 21 16 18 21 15 17 11 20 24 27 30 30 27
23 24 24 25 26 26 26 25 24 24 21 18 14 11 8 12 16 12 12 15 21 22 24 23 24 24 25 22 21 21 21 25 20 9 23 23 20 4 17 23 25 28 28 28 26
24 25 25 26 26 27 27 25 24 23 20 14 9 6 8 18 14 21 11 15 18 24 25 24 21 23 22 23 23 21 18 15 15 19 16 14 23 9 10 22 26 28 27 29 28
25 26 27 28 29 29 28 26 24 22 18 12 10 11 15 24 12 6 16 16 19 24 26 26 25 21 24 21 24 23 19 16 17 15 12 12 10 9 14 23 23 25 25 23 26
26 26 27 29 30 31 31 26 23 21 17 10 11 12 13 16 25 23 13 17 19 20 24 25 24 21 25 19 24 25 21 17 20 21 15 15 14 14 25 19 22 25 23 22 22
27 28 30 30 32 32 31 32 25 16 8 4 10 11 12 6 20 23 19 19 20 18 24 21 18 22 21 21 20 21 19 22 21 23 18 18 11 26 15 22 24 21 22 22 20
26 27 28 30 32 33 34 35 12 7 8 10 13 10 12 15 13 21 24 19 21 20 22 20 16 19 21 20 21 22 21 19 24 21 24 21 19 21 15 23 16 24 21 21 23
27 27 28 28 31 33 19 12 16 5 11 21 11 17 23 9 6 16 22 22 22 23 23 24 18 26 29 25 23 24 20 24 22 22 23 20 16 21 9 16 24 23 22 22 23
28 29 29 33 31 32 17 16 15 14 25 21 29 33 34 29 21 15 22 26 26 27 25 22 29 26 27 25 27 27 24 25 23 25 14 21 16 26 25 39 19 21 14 23 22
26 28 30 31 32 19 11 18 16 16 16 22 32 30 32 26 27 20 27 28 29 30 31 29 18 26 27 26 28 28 27 24 21 21 24 18 15 20 27 18 25 22 32 24 23
26 27 29 30 10 17 13 17 16 14 10 13 14 11 26 26 29 28 28 28 26 32 32 28 29 29 27 29 26 27 27 26 25 19 17 22 16 20 16 21 26 28 24 23 24
27 28 27 19 13 11 17 17 16 8 10 10 9 7 8 28 4 34 26 28 32 24 31 30 27 31 29 25 28 24 25 25 26 20 18 20 18 13 21 20 21 23 21 25 25
30 30 26 14 11 12 17 17 11 7 15 12 25 26 13 23 30 18 33 31 27 28 28 31 25 27 26 23 27 24 22 25 24 18 18 22 19 17 17 20 19 20 20 26 27
30 32 22 12 9 16 14 12 7 9 19 21 29 29 28 26 23 30 30 32 29 29 29 28 33 29 26 25 26 21 22 14 16 19 16 21 21 12 19 24 22 22 22 21 26
33 35 11 12 12 14 12 13 12 11 18 28 25 27 26 22 23 22 27 28 33 30 17 23 28 35 21 28 25 27 25 14 22 18 17 22 23 19 21 19 27 24 23 21 21
33 11 13 8 10 10 11 11 12 10 16 18 25 23 24 31 22 29 29 28 32 34 32 23 30 26 29 25 25 26 28 23 22 20 16 18 21 23 24 22 19 14 22 23 22
13 13 15 7 12 10 11 15 12 12 15 21 24 20 23 24 26 27 24 27 27 33 32 30 18 32 33 25 29 28 21 22 18 21 20 19 23 19 22 22 22 18 16 19 22
10 9 8 11 10 11 12 13 17 19 23 20 22 20 20 21 20 23 16 23 21 18 32 30 26 22 29 34 27 22 22 25 20 16 15 15 14 15 25 25 21 22 17 15 20
10 11 13 7 13 4 7 15 13 18 9 17 24 16 12 11 18 17 21 15 29 26 17 18 22 22 25 27 32 28 28 25 13 21 15 15 5 12 5 22 20 17 21 19 16
10 14 9 12 10 10 15 19 17 11 10 13 18 15 15 11 11 10 16 24 35 30 13 13 14 21 26 23 32 32 29 28 22 19 19 15 6 5 11 12 18 18 14 18 13
8 8 10 11 12 17 18 16 16 9 3 11 27 13 13 15 15 9 15 16 32 30 14 7 9 21 19 20 18 29 29 29 28 18 16 17 7 7 7 4 3 11 14 12 14
5 6 4 8 12 20 19 16 18 10 11 13 13 10 13 13 15 7 10 23 24 25 19 11 14 18 27 24 22 27 26 30 31 20 22 18 18 13 11 10 5 7 12 15 15
2 4 5 11 17 17 18 11 21 16 14 15 18 8 15 12 13 14 14 13 11 22 23 19 9 11 18 22 20 18 31 30 29 29 23 25 17 17 15 12 9 11 10 10 9
2 2 3 6 13 12 13 15 22 22 15 16 15 16 18 11 15 16 14 15 18 24 19 14 11 8 16 18 22 19 15 27 25 26 24 20 14 19 20 18 12 10 7 7 4
Wind_Direction
355 352 348 344 340 337 334 330 327 321 316 313 310 307 302 302 299 252 239 237 212 197 229 221 211 219 209 234 226 249 299 314 333 335 97 112 103 88 100 131 145 132 140 143 144
351 347 343 340 337 333 330 326 323 318 313 309 305 303 302 307 286 264 239 229 229 181 220 220 209 213 221 229 234 232 110 251 263 272 351 324 120 130 131 127 116 114 124 148 147
348 343 339 336 334 330 326 324 321 316 308 303 298 297 298 303 273 255 163 212 208 177 217 225 215 214 223 220 223 239 180 221 239 263 222 21 303 147 137 138 126 134 142 154 154
344 340 336 334 331 327 324 321 318 312 306 299 290 289 295 272 266 76 55 190 178 199 216 230 219 219 225 226 231 233 228 190 291 274 172 138 318 142 159 134 129 143 151 155 163
341 336 333 329 327 323 320 317 315 311 307 297 284 274 254 219 243 239 121 141 174 198 209 218 218 218 220 228 230 238 247 182 199 233 151 115 275 258 134 134 132 143 156 156 163
339 335 332 329 326 323 318 316 313 312 307 295 268 225 239 247 246 234 164 163 186 200 212 218 222 219 228 233 238 233 232 235 216 213 176 174 195 146 168 137 138 151 164 162 168
337 335 333 330 326 322 318 315 314 311 303 293 229 217 240 238 266 221 194 187 202 199 210 217 225 221 228 233 241 242 244 243 246 244 240 214 129 201 120 141 149 160 166 175 169
336 334 331 329 326 322 317 313 308 304 299 296 204 208 255 246 232 264 218 200 205 198 218 213 222 232 235 243 237 248 245 225 216 236 223 217 208 111 129 246 159 163 169 173 183
337 336 332 330 326 321 318 309 300 280 302 175 174 222 261 195 228 212 229 207 206 191 216 223 213 227 230 229 242 239 237 236 240 212 224 208 208 142 186 280 160 168 172 173 181
334 332 329 327 324 320 320 305 301 192 220 201 264 224 238 240 209 218 206 212 205 197 212 223 210 217 226 214 222 230 218 227 234 201 208 227 225 169 157 222 202 172 175 176 178
332 331 328 327 322 316 326 342 352 183 333 288 262 241 296 295 287 188 200 204 205 206 206 207 209 214 215 222 225 236 226 223 227 235 208 224 176 162 147 325 272 170 172 184 179
332 332 332 328 322 312 301 9 1 301 298 276 263 263 264 276 290 212 191 199 201 205 203 205 223 214 221 215 228 230 241 227 230 220 204 229 212 171 161 192 243 153 208 181 175
332 330 330 327 316 299 343 356 328 323 288 285 247 241 231 235 241 223 195 200 201 203 204 216 211 223 217 219 221 226 231 244 226 244 184 217 239 204 189 169 132 253 194 172 173
331 329 329 334 300 321 352 336 327 327 287 271 207 247 220 220 225 236 192 203 209 210 211 218 227 199 216 219 218 222 226 243 255 228 224 195 212 211 222 216 177 205 172 172 177
332 330 330 322 300 309 342 324 316 278 295 88 96 16 214 204 179 208 219 208 215 205 209 211 215 221 207 217 216 226 217 229 249 258 249 228 229 208 210 220 205 179 184 175 181
333 326 332 302 261 274 320 315 280 245 246 2 7 350 312 207 234 268 204 208 218 220 214 228 212 227 219 212 218 218 226 215 231 246 245 243 215 224 225 211 219 189 198 180 177
325 316 314 294 293 320 320 294 269 248 303 354 344 339 326 308 229 241 198 200 209 219 210 215 227 219 221 202 212 209 214 210 208 216 233 234 244 242 223 194 203 200 194 193 173
322 310 265 257 292 322 302 280 273 276 350 335 333 321 300 293 298 241 241 208 210 222 216 213 211 221 203 212 201 209 213 218 212 210 216 239 227 230 252 262 196 198 181 195 182
317 307 291 195 329 304 284 283 314 353 330 328 320 310 321 335 343 321 233 226 205 221 222 209 225 201 226 211 216 201 216 216 229 223 224 216 224 253 226 245 249 219 187 184 183
316 293 265 2 317 283 270 273 312 341 327 317 301 305 308 315 325 331 314 227 210 209 235 241 225 227 202 205 220 221 196 215 228 235 228 222 217 213 217 217 221 222 209 194 180
289 303 61 344 300 264 279 329 338 334 334 316 312 306 304 341 319 304 280 327 357 227 210 239 249 231 224 205 205 210 211 208 229 234 239 252 227 208 199 201 206 207 208 226 189
306 299 332 328 292 325 309 338 338 319 334 337 307 302 319 327 308 307 296 304 330 323 289 241 234 246 247 209 207 210 217 208 222 213 245 268 282 10 229 176 200 206 201 200 219
311 298 310 334 311 341 335 317 331 335 321 315 289 309 307 303 293 294 315 324 309 322 358 352 240 229 242 235 191 213 207 222 211 228 222 241 225 70 45 144 182 190 219 181 199
305 315 341 327 344 338 325 318 310 40 339 345 307 318 321 307 301 309 320 313 321 299 321 287 260 249 229 231 207 193 212 209 226 208 225 217 150 148 113 130 165 159 191 190 185
342 296 330 310 326 317 307 315 307 280 295 212 290 320 306 308 312 298 304 321 324 314 329 256 262 250 241 237 224 194 208 213 216 214 219 215 208 147 139 147 155 122 177 207 183
308 331 337 302 285 299 302 330 282 319 310 317 314 281 302 309 303 315 312 303 299 321 333 336 273 283 266 267 273 270 198 213 216 226 204 238 207 130 129 130 146 105 80 63 72
171 279 274 276 289 290 288 322 322 316 304 304 272 306 301 337 297 295 283 267 259 285 308 318 339 294 254 249 247 243 245 201 217 213 223 216 230 142 142 136 139 127 94 110 93